Weather History for Mount Pleasant, SC

Change the Weather History Date:

Friday, February 8, 2013

  Actual Average (KCHS) Record (KCHS)
Temperature  
Mean Temperature 57 °F 50 °F  
Max Temperature 64 °F 61 °F 79 °F (1965)
Min Temperature 50 °F 39 °F 17 °F (1977)
Degree Days  
Heating Degree Days 8 15  
Month to date heating degree days 122  
Since 1 July heating degree days 1381  
Cooling Degree Days 0 0  
Month to date cooling degree days 0  
Year to date cooling degree days 2  
Growing Degree Days 7 (Base 50)    
Moisture  
Dew Point 49 °F    
Average Humidity 78    
Maximum Humidity 100    
Minimum Humidity 56    
Precipitation  
Precipitation 0.13 in 0.11 in 0.77 in (1948)
Month to date precipitation 0.88  
Year to date precipitation 4.59  
Sea Level Pressure  
Sea Level Pressure 29.90 in    
Wind  
Wind Speed 9 mph (WNW)    
Max Wind Speed 18 mph    
Max Gust Speed 24 mph    
Visibility 9 miles    
Events Rain    
T = Trace of Precipitation, MM = Missing Value Source: NWS Daily Summary

Daily Weather History Graph

Daily Weather History Graph

Search for Another Location

Airport:

Trip Planner

Search our weather history database for the weather conditions in past years. The results will help you decide how hot, cold, wet, or windy it might be!

Date:

Astronomy

Feb. 08, 2013 Rise Set
Actual Time 7:08 AM EST 5:58 PM EST
Civil Twilight 6:43 AM EST 6:23 PM EST
Nautical Twilight 6:13 AM EST 6:53 PM EST
Astronomical Twilight 5:45 AM EST 7:22 PM EST
Moon 5:33 AM EST (2/8) 4:31 PM EST (2/8)
Length of Visible Light 11h 40m
Length of Day
10h 49m
Waning Crescent, 3% of the Moon is Illuminated
Feb 8
Waning Crescent
Feb 10
New
Feb 17
First Quarter
Feb 25
Full
Mar 4
Last Quarter

Hourly Weather History & Observations

Time (EST) Temp. Dew Point Humidity Pressure Visibility Wind Dir Wind Speed Gust Speed Precip Events Conditions
12:15 AM 57.2 °F 57.2 °F 100% 29.71 in 4.0 mi NW 5.8 mph - 0.01 in Rain Light Rain
12:35 AM 57.2 °F 57.2 °F 100% 29.71 in 2.0 mi Calm Calm - 0.11 in Rain Light Rain
12:55 AM 57.2 °F 55.4 °F 94% 29.71 in 2.5 mi NW 11.5 mph - 0.13 in Rain Light Rain
1:15 AM 55.4 °F 55.4 °F 100% 29.72 in 3.0 mi NW 11.5 mph 17.3 mph N/A   Overcast
1:35 AM 55.4 °F 53.6 °F 94% 29.72 in 8.0 mi NNW 15.0 mph 20.7 mph N/A   Overcast
1:55 AM 53.6 °F 53.6 °F 100% 29.73 in 7.0 mi NNW 11.5 mph - N/A   Overcast
2:15 AM 53.6 °F 53.6 °F 100% 29.72 in 5.0 mi NW 11.5 mph - N/A   Overcast
2:35 AM 53.6 °F 51.8 °F 94% 29.74 in 10.0 mi NW 11.5 mph - N/A   Overcast
2:55 AM 51.8 °F 51.8 °F 100% 29.75 in 10.0 mi NW 16.1 mph - N/A   Overcast
3:15 AM 51.8 °F 50.0 °F 94% 29.76 in 10.0 mi NW 15.0 mph 20.7 mph N/A   Overcast
3:35 AM 51.8 °F 50.0 °F 94% 29.77 in 9.0 mi NW 16.1 mph 19.6 mph N/A   Overcast
3:55 AM 51.8 °F 50.0 °F 94% 29.77 in 5.0 mi NW 13.8 mph - N/A   Overcast
4:15 AM 51.8 °F 50.0 °F 94% 29.79 in 3.0 mi NW 12.7 mph - N/A   Overcast
4:35 AM 51.8 °F 48.2 °F 88% 29.79 in 2.5 mi NW 18.4 mph 24.2 mph N/A   Light Drizzle
4:55 AM 50.0 °F 48.2 °F 94% 29.80 in 2.0 mi NW 13.8 mph - N/A   Overcast
5:15 AM 50.0 °F 48.2 °F 94% 29.81 in 3.0 mi NW 11.5 mph 20.7 mph N/A   Overcast
5:35 AM 50.0 °F 48.2 °F 94% 29.81 in 3.0 mi NW 10.4 mph 20.7 mph N/A   Overcast
5:55 AM 50.0 °F 48.2 °F 94% 29.83 in 9.0 mi NW 12.7 mph 16.1 mph N/A   Overcast
6:15 AM 50.0 °F 48.2 °F 94% 29.84 in 10.0 mi NW 10.4 mph 19.6 mph N/A   Overcast
6:35 AM 50.0 °F 46.4 °F 87% 29.85 in 10.0 mi NNW 13.8 mph - N/A   Overcast
6:55 AM 50.0 °F 46.4 °F 87% 29.86 in 10.0 mi NNW 13.8 mph 20.7 mph N/A   Overcast
7:15 AM 50.0 °F 46.4 °F 87% 29.87 in 10.0 mi NNW 10.4 mph 19.6 mph N/A   Overcast
7:35 AM 50.0 °F 46.4 °F 87% 29.88 in 10.0 mi NW 9.2 mph - N/A   Overcast
7:55 AM 50.0 °F 46.4 °F 87% 29.90 in 10.0 mi NNW 12.7 mph - N/A   Overcast
8:15 AM 50.0 °F 46.4 °F 87% 29.91 in 10.0 mi NNW 6.9 mph - N/A   Overcast
8:35 AM 50.0 °F 46.4 °F 87% 29.92 in 10.0 mi NNW 8.1 mph - N/A   Overcast
8:55 AM 50.0 °F 46.4 °F 87% 29.93 in 10.0 mi NNW 10.4 mph - N/A   Overcast
9:15 AM 51.8 °F 46.4 °F 82% 29.93 in 10.0 mi NW 8.1 mph - N/A   Overcast
9:35 AM 53.6 °F 46.4 °F 77% 29.95 in 10.0 mi WNW 10.4 mph - N/A   Mostly Cloudy
9:55 AM 51.8 °F 46.4 °F 82% 29.94 in 10.0 mi WNW 6.9 mph - N/A   Mostly Cloudy
10:15 AM 53.6 °F 46.4 °F 77% 29.94 in 10.0 mi NW 5.8 mph - N/A   Scattered Clouds
10:35 AM 53.6 °F 46.4 °F 77% 29.94 in 10.0 mi NNW 4.6 mph - N/A   Scattered Clouds
10:55 AM 55.4 °F 48.2 °F 77% 29.94 in 10.0 mi West 6.9 mph - N/A   Scattered Clouds
11:15 AM 55.4 °F 48.2 °F 77% 29.94 in 10.0 mi WNW 6.9 mph - N/A   Scattered Clouds
11:35 AM 57.2 °F 48.2 °F 72% 29.94 in 10.0 mi WNW 8.1 mph - N/A   Partly Cloudy
11:55 AM 57.2 °F 48.2 °F 72% 29.94 in 10.0 mi WNW 6.9 mph - N/A   Scattered Clouds
12:15 PM 59.0 °F 48.2 °F 67% 29.93 in 10.0 mi WSW 5.8 mph - N/A   Partly Cloudy
12:35 PM 60.8 °F 48.2 °F 63% 29.93 in 10.0 mi NW 5.8 mph - N/A   Partly Cloudy
12:55 PM 60.8 °F 48.2 °F 63% 29.93 in 10.0 mi WNW 6.9 mph - N/A   Clear
1:15 PM 62.6 °F 48.2 °F 59% 29.92 in 10.0 mi West 8.1 mph - N/A   Partly Cloudy
1:35 PM 62.6 °F 48.2 °F 59% 29.92 in 10.0 mi WNW 10.4 mph - N/A   Partly Cloudy
1:55 PM 62.6 °F 48.2 °F 59% 29.92 in 10.0 mi WSW 9.2 mph - N/A   Clear
2:15 PM 64.4 °F 48.2 °F 56% 29.92 in 10.0 mi West 9.2 mph - N/A   Clear
2:35 PM 64.4 °F 48.2 °F 56% 29.92 in 10.0 mi West 9.2 mph - N/A   Clear
2:55 PM 64.4 °F 48.2 °F 56% 29.92 in 10.0 mi West 8.1 mph - N/A   Clear
3:15 PM 64.4 °F 48.2 °F 56% 29.91 in 10.0 mi West 9.2 mph - N/A   Clear
3:35 PM 64.4 °F 48.2 °F 56% 29.91 in 10.0 mi WNW 9.2 mph - N/A   Clear
3:55 PM 64.4 °F 48.2 °F 56% 29.91 in 10.0 mi WNW 8.1 mph - N/A   Clear
4:15 PM 64.4 °F 48.2 °F 56% 29.91 in 10.0 mi WNW 6.9 mph - N/A   Clear
4:35 PM 64.4 °F 48.2 °F 56% 29.91 in 10.0 mi West 9.2 mph - N/A   Clear
4:55 PM 64.4 °F 48.2 °F 56% 29.91 in 10.0 mi WNW 10.4 mph - N/A   Clear
5:15 PM 64.4 °F 48.2 °F 56% 29.92 in 10.0 mi West 6.9 mph - N/A   Clear
5:35 PM 62.6 °F 48.2 °F 59% 29.92 in 10.0 mi West 8.1 mph - N/A   Clear
5:55 PM 62.6 °F 48.2 °F 59% 29.93 in 10.0 mi West 3.5 mph - N/A   Partly Cloudy
6:15 PM 60.8 °F 48.2 °F 63% 29.94 in 10.0 mi West 5.8 mph - N/A   Mostly Cloudy
6:35 PM 60.8 °F 48.2 °F 63% 29.94 in 10.0 mi West 6.9 mph - N/A   Overcast
7:15 PM 60.8 °F 48.2 °F 63% 29.97 in 10.0 mi WNW 5.8 mph - N/A   Clear
7:35 PM 59.0 °F 48.2 °F 67% 29.98 in 10.0 mi NW 5.8 mph - N/A   Partly Cloudy
7:55 PM 57.2 °F 48.2 °F 72% 29.99 in 10.0 mi NW 3.5 mph - N/A   Mostly Cloudy
8:15 PM 57.2 °F 48.2 °F 72% 30.00 in 10.0 mi Calm Calm - N/A   Mostly Cloudy
8:35 PM 59.0 °F 48.2 °F 67% 30.00 in 10.0 mi Calm Calm - N/A   Overcast
8:55 PM 59.0 °F 48.2 °F 67% 30.01 in 10.0 mi West 4.6 mph - N/A   Overcast
9:15 PM 59.0 °F 50.0 °F 72% 30.01 in 10.0 mi West 8.1 mph - N/A   Mostly Cloudy
9:35 PM 57.2 °F 50.0 °F 77% 30.02 in 10.0 mi West 6.9 mph - N/A   Partly Cloudy
9:55 PM 57.2 °F 50.0 °F 77% 30.03 in 10.0 mi West 6.9 mph - N/A   Partly Cloudy
10:15 PM 57.2 °F 50.0 °F 77% 30.03 in 10.0 mi West 3.5 mph - N/A   Clear
10:35 PM 55.4 °F 50.0 °F 82% 30.03 in 10.0 mi West 3.5 mph - N/A   Clear
10:55 PM 55.4 °F 50.0 °F 82% 30.04 in 10.0 mi West 4.6 mph - N/A   Clear
11:15 PM 53.6 °F 50.0 °F 88% 30.04 in 10.0 mi Calm Calm - N/A   Clear
11:35 PM 53.6 °F 50.0 °F 88% 30.06 in 10.0 mi Calm Calm - N/A   Clear
11:55 PM 53.6 °F 50.0 °F 88% 30.07 in 10.0 mi NW 4.6 mph - N/A   Clear